Погода в Прилогино

Россия / Курганская область     55°28′33″N   66°23′14″E
темп.,
°C
ветер,
м/с
пор.,
м/с
влажн.,
%
обл.,
%
осадки,
мм/ч
давл.,
гПа
погр.,
м
16 мая, вс
вс1623:00+22зюз411421 0.0 1017158
02:00+19зсз494911 0.0 1017128
05:00+18сз41054100 0.0 1018170
08:00+24зсз454343 0.0 1019310
11:00+29з673086 0.0 10191164
14:00+32зсз7112354 0.0 10183288
17:00+31зсз710237 0.0 10183421
20:00+26зсз333350 0.0 101733
17 мая, пн
пн1723:00+22з473971 0.0 101790
02:00+20зсз41041100 0.0 1017163
05:00+19з475021 0.0 1018107
08:00+25зсз46375 0.0 1018306
11:00+30з69251 0.0 10182111
14:00+32зсз7102117 0.0 10163937
17:00+31зсз89208 0.0 10153577
20:00+26з482731 0.0 1015149
18 мая, вт
вт1823:00+21з5113854 0.0 1014183
02:00+19зсз4105271 0.0 1014191
05:00+17з3560100 0.0 101483
08:00+23з6948100 0.0 1013429
11:00+27зсз8113723 0.0 10122127
14:00+27зсз811318 0.0 10113117
17:00+26сз9102930 0.0 10112788
20:00+18с9136298 0.0 1014919
19 мая, ср
ср1923:00+13с81279100 0.0 1017820
02:00+12с81073100 0.0 10181018
05:00+10с712787 0.0 1021763
08:00+12ссв79560 0.0 10231093
11:00+16ссв78360 0.0 10231396
14:00+19ссв67325 0.0 10231703
17:00+19ссв573141 0.0 10231866
20:00+16с364898 0.0 1024105
20 мая, чт
чт2023:00+12св34575 0.0 102555
02:00+10в2256100 0.0 102623
05:00+9ююв22585 0.0 102615
08:00+15зюз344227 0.0 1026448
11:00+20зсз45355 0.0 10251647
14:00+23з45285 0.0 10241956
17:00+24з56275 0.0 10221924
20:00+20зюз34435 0.0 102252